KC5DAQ-28 Weather Reports


Display with metric or nautical units.
time (UTC)temp
F
wind
direction
speed
MPH
gust
MPH
rain 1hr
in
rain 24hr
in
rain mn
in
humidity
%
barometer
mb
20260504041428 67 147 1.0 3.0 0.00 0.00 0.00 67 1012.6
20260504041328 67 147 1.0 3.0 0.00 0.00 0.00 67 1012.7
20260504041228 67 149 1.0 3.0 0.00 0.00 0.00 67 1012.6
20260504041127 67 144 1.0 3.0 0.00 0.00 0.00 66 1012.7
20260504041027 67 144 1.0 3.0 0.00 0.00 0.00 67 1012.7
20260504040927 67 144 0.0 3.0 0.00 0.00 0.00 67 1012.7
20260504040827 67 144 0.0 3.0 0.00 0.00 0.00 66 1012.7
20260504040727 67 145 1.0 4.0 0.00 0.00 0.00 66 1012.7
20260504040628 67 145 1.0 5.0 0.00 0.00 0.00 66 1012.7
20260504040524 67 141 2.0 5.0 0.00 0.00 0.00 66 1012.7
20260504040417 67 171 2.0 5.0 0.00 0.00 0.00 66 1012.7
20260504040309 67 172 1.0 5.0 0.00 0.00 0.00 66 1012.7
20260504040210 67 171 0.0 5.0 0.00 0.00 0.00 66 1012.6
20260504040104 67 158 0.0 5.0 0.00 0.00 0.00 65 1012.7
20260504040003 67 158 2.0 5.0 0.00 0.00 0.00 65 1012.5
20260504035902 67 158 2.0 5.0 0.00 0.00 0.00 65 1012.6
20260504035802 67 152 2.0 5.0 0.00 0.00 0.00 65 1012.5
20260504035704 67 190 2.0 4.0 0.00 0.00 0.00 65 1012.5
20260504035604 67 162 1.0 4.0 0.00 0.00 0.00 65 1012.5
20260504035502 67 164 2.0 4.0 0.00 0.00 0.00 65 1012.5
20260504035403 67 161 2.0 4.0 0.00 0.00 0.00 65 1012.6
20260504035304 67 161 2.0 4.0 0.00 0.00 0.00 65 1012.5
20260504035203 67 165 2.0 4.0 0.00 0.00 0.00 65 1012.5
20260504035103 67 168 2.0 4.0 0.00 0.00 0.00 65 1012.5
20260504035002 67 159 2.0 4.0 0.00 0.00 0.00 65 1012.5
20260504034902 67 157 2.0 4.0 0.00 0.00 0.00 65 1012.5
20260504034803 67 157 1.0 4.0 0.00 0.00 0.00 65 1012.5
20260504034703 67 157 2.0 4.0 0.00 0.00 0.00 65 1012.5
20260504034603 67 158 2.0 4.0 0.00 0.00 0.00 65 1012.5
20260504034502 67 165 2.0 4.0 0.00 0.00 0.00 65 1012.5
20260504034405 67 171 2.0 4.0 0.00 0.00 0.00 64 1012.5
20260504034304 67 148 2.0 4.0 0.00 0.00 0.00 64 1012.5
20260504034202 68 158 2.0 4.0 0.00 0.00 0.00 64 1012.5
20260504034104 68 121 0.0 3.0 0.00 0.00 0.00 65 1012.4
20260504034003 68 155 0.0 2.0 0.00 0.00 0.00 64 1012.5
20260504033904 68 155 0.0 3.0 0.00 0.00 0.00 64 1012.5
20260504033804 68 155 0.0 3.0 0.00 0.00 0.00 64 1012.5
20260504033703 68 155 0.0 3.0 0.00 0.00 0.00 64 1012.5
20260504033602 68 157 0.0 3.0 0.00 0.00 0.00 64 1012.6
20260504033504 68 158 0.0 3.0 0.00 0.00 0.00 64 1012.6
20260504033403 68 158 0.0 3.0 0.00 0.00 0.00 64 1012.6
20260504033303 68 157 0.0 3.0 0.00 0.00 0.00 63 1012.5
20260504033203 68 157 1.0 3.0 0.00 0.00 0.00 63 1012.5
20260504033104 68 157 2.0 3.0 0.00 0.00 0.00 63 1012.6
20260504033004 68 158 1.0 6.0 0.00 0.00 0.00 63 1012.5
20260504032903 68 161 2.0 6.0 0.00 0.00 0.00 63 1012.6
20260504032803 68 161 2.0 6.0 0.00 0.00 0.00 63 1012.5
20260504032703 68 151 2.0 6.0 0.00 0.00 0.00 63 1012.5
20260504032603 68 152 2.0 6.0 0.00 0.00 0.00 63 1012.5
20260504032503 68 152 2.0 6.0 0.00 0.00 0.00 62 1012.5
20260504032404 68 144 2.0 6.0 0.00 0.00 0.00 62 1012.5
20260504032303 68 159 2.0 6.0 0.00 0.00 0.00 62 1012.5
20260504032201 68 188 3.0 6.0 0.00 0.00 0.00 62 1012.5
20260504032102 68 169 2.0 6.0 0.00 0.00 0.00 62 1012.6
20260504032004 68 145 2.0 5.0 0.00 0.00 0.00 62 1012.5
20260504031902 69 147 2.0 5.0 0.00 0.00 0.00 62 1012.5
20260504031802 69 185 2.0 5.0 0.00 0.00 0.00 62 1012.5
20260504031704 69 186 2.0 6.0 0.00 0.00 0.00 62 1012.5
20260504031603 69 164 2.0 6.0 0.00 0.00 0.00 62 1012.5
20260504031504 69 118 2.0 7.0 0.00 0.00 0.00 62 1012.5
20260504031403 69 134 2.0 7.0 0.00 0.00 0.00 62 1012.4
20260504031304 69 151 3.0 7.0 0.00 0.00 0.00 62 1012.4
20260504031204 69 164 3.0 7.0 0.00 0.00 0.00 62 1012.4
20260504031103 69 138 3.0 7.0 0.00 0.00 0.00 62 1012.4
20260504031002 69 151 3.0 7.0 0.00 0.00 0.00 61 1012.4
20260504030902 69 155 3.0 7.0 0.00 0.00 0.00 61 1012.4
20260504030802 69 128 3.0 7.0 0.00 0.00 0.00 61 1012.4
20260504030703 69 147 3.0 7.0 0.00 0.00 0.00 61 1012.4
20260504030604 69 124 3.0 7.0 0.00 0.00 0.00 61 1012.4
20260504030504 69 175 2.0 6.0 0.00 0.00 0.00 61 1012.3
20260504030402 69 142 2.0 6.0 0.00 0.00 0.00 61 1012.4
20260504030303 69 134 3.0 6.0 0.00 0.00 0.00 61 1012.4
20260504030204 69 155 4.0 6.0 0.00 0.00 0.00 61 1012.4
20260504030101 69 158 3.0 6.0 0.00 0.00 0.00 61 1012.3
20260504030004 69 121 3.0 6.0 0.00 0.00 0.00 61 1012.4
20260504025904 69 171 3.0 6.0 0.00 0.00 0.00 61 1012.3
20260504025802 69 173 3.0 6.0 0.00 0.00 0.00 61 1012.3
20260504025704 69 149 2.0 5.0 0.00 0.00 0.00 61 1012.2
20260504025603 69 180 3.0 7.0 0.00 0.00 0.00 61 1012.3
20260504025502 69 124 3.0 7.0 0.00 0.00 0.00 61 1012.2
20260504025403 69 149 2.0 7.0 0.00 0.00 0.00 61 1012.3
20260504025304 69 151 2.0 7.0 0.00 0.00 0.00 61 1012.2
20260504025203 69 145 3.0 7.0 0.00 0.00 0.00 60 1012.2
20260504025102 69 144 3.0 7.0 0.00 0.00 0.00 60 1012.2
20260504025002 69 128 3.0 7.0 0.00 0.00 0.00 60 1012.3
20260504024904 69 151 2.0 7.0 0.00 0.00 0.00 60 1012.3
20260504024802 69 137 4.0 7.0 0.00 0.00 0.00 60 1012.2
20260504024703 69 176 4.0 7.0 0.00 0.00 0.00 60 1012.2
20260504024602 69 155 3.0 7.0 0.00 0.00 0.00 60 1012.2
20260504024503 69 131 3.0 6.0 0.00 0.00 0.00 60 1012.2
20260504024402 70 135 3.0 6.0 0.00 0.00 0.00 60 1012.1
20260504024304 70 140 4.0 6.0 0.00 0.00 0.00 60 1012.2
20260504024203 70 144 4.0 6.0 0.00 0.00 0.00 59 1012.2
20260504024102 70 147 4.0 6.0 0.00 0.00 0.00 60 1012.3
20260504024004 70 169 3.0 5.0 0.00 0.00 0.00 59 1012.2
20260504023903 70 148 3.0 5.0 0.00 0.00 0.00 59 1012.2
20260504023804 70 145 4.0 5.0 0.00 0.00 0.00 60 1012.2
20260504023702 70 134 3.0 5.0 0.00 0.00 0.00 60 1012.2
20260504023604 70 145 3.0 5.0 0.00 0.00 0.00 60 1012.2
20260504023503 70 147 3.0 5.0 0.00 0.00 0.00 59 1012.1
20260504023402 70 147 3.0 5.0 0.00 0.00 0.00 59 1012.2
20260504023303 70 162 3.0 5.0 0.00 0.00 0.00 59 1012.2
20260504023203 70 145 2.0 5.0 0.00 0.00 0.00 59 1012.1
20260504023103 70 147 3.0 5.0 0.00 0.00 0.00 59 1012.2
20260504023003 70 144 2.0 5.0 0.00 0.00 0.00 59 1012.2
20260504022904 70 145 2.0 5.0 0.00 0.00 0.00 59 1012.1
20260504022803 70 140 3.0 5.0 0.00 0.00 0.00 59 1012.0
20260504022703 70 147 3.0 5.0 0.00 0.00 0.00 59 1012.1
20260504022604 70 161 2.0 5.0 0.00 0.00 0.00 58 1012.1
20260504022503 70 145 2.0 5.0 0.00 0.00 0.00 58 1012.0
20260504022402 70 154 2.0 5.0 0.00 0.00 0.00 58 1012.0
20260504022304 70 149 3.0 5.0 0.00 0.00 0.00 58 1012.0
20260504022202 70 144 3.0 5.0 0.00 0.00 0.00 58 1011.9
20260504022104 70 121 3.0 5.0 0.00 0.00 0.00 58 1012.0
20260504022003 70 161 2.0 5.0 0.00 0.00 0.00 58 1012.1
20260504021903 70 140 2.0 5.0 0.00 0.00 0.00 58 1012.0
20260504021802 71 162 2.0 6.0 0.00 0.00 0.00 57 1012.1
20260504021703 71 164 2.0 6.0 0.00 0.00 0.00 57 1012.0
20260504021602 71 164 2.0 6.0 0.00 0.00 0.00 57 1012.0
20260504021504 71 165 2.0 6.0 0.00 0.00 0.00 57 1012.1
20260504021402 71 166 2.0 6.0 0.00 0.00 0.00 57 1012.0
20260504021303 71 161 2.0 6.0 0.00 0.00 0.00 57 1012.0
20260504021203 71 171 3.0 6.0 0.00 0.00 0.00 57 1011.9
20260504021103 71 172 3.0 6.0 0.00 0.00 0.00 57 1012.0
20260504021003 71 148 3.0 6.0 0.00 0.00 0.00 56 1012.0
20260504020904 71 151 2.0 6.0 0.00 0.00 0.00 57 1012.0
20260504020804 71 151 2.0 6.0 0.00 0.00 0.00 57 1011.9
20260504020702 71 137 2.0 6.0 0.00 0.00 0.00 57 1011.9
20260504020604 71 151 4.0 7.0 0.00 0.00 0.00 56 1012.0
20260504020503 71 145 4.0 10.0 0.00 0.00 0.00 56 1012.0
20260504020402 71 152 3.0 10.0 0.00 0.00 0.00 56 1011.9
20260504020302 71 173 3.0 10.0 0.00 0.00 0.00 56 1011.9
20260504020203 71 237 3.0 10.0 0.00 0.00 0.00 56 1011.9
20260504020103 71 172 3.0 10.0 0.00 0.00 0.00 56 1011.9
20260504020004 71 138 4.0 10.0 0.00 0.00 0.00 56 1012.0
20260504015903 71 107 4.0 10.0 0.00 0.00 0.00 56 1011.8
20260504015804 71 151 5.0 10.0 0.00 0.00 0.00 56 1011.8
20260504015702 71 152 5.0 10.0 0.00 0.00 0.00 56 1011.8
20260504015603 71 117 6.0 10.0 0.00 0.00 0.00 56 1011.8
20260504015505 71 127 5.0 9.0 0.00 0.00 0.00 56 1011.8
20260504015403 71 114 5.0 10.0 0.00 0.00 0.00 56 1011.7
20260504015304 71 125 4.0 10.0 0.00 0.00 0.00 56 1011.8
20260504015204 71 149 3.0 10.0 0.00 0.00 0.00 56 1011.8
20260504015102 72 133 4.0 10.0 0.00 0.00 0.00 55 1011.8
20260504015004 72 145 4.0 10.0 0.00 0.00 0.00 55 1011.7
20260504014904 72 166 5.0 10.0 0.00 0.00 0.00 55 1011.8
20260504014801 72 144 5.0 10.0 0.00 0.00 0.00 55 1011.8
20260504014705 72 109 4.0 10.0 0.00 0.00 0.00 55 1011.8
20260504014602 72 148 5.0 10.0 0.00 0.00 0.00 54 1011.8
20260504014503 72 161 5.0 10.0 0.00 0.00 0.00 54 1011.8
20260504014403 72 128 3.0 9.0 0.00 0.00 0.00 54 1011.8
20260504014304 72 149 4.0 9.0 0.00 0.00 0.00 54 1011.8
20260504014202 72 137 5.0 11.0 0.00 0.00 0.00 55 1011.8
20260504014104 72 168 4.0 11.0 0.00 0.00 0.00 55 1011.7
20260504014005 72 152 4.0 11.0 0.00 0.00 0.00 55 1011.8
20260504013902 72 161 3.0 11.0 0.00 0.00 0.00 54 1011.8
20260504013804 72 162 3.0 11.0 0.00 0.00 0.00 54 1011.8
20260504013702 72 134 3.0 11.0 0.00 0.00 0.00 54 1011.9
20260504013604 72 159 5.0 11.0 0.00 0.00 0.00 54 1011.8
20260504013504 72 173 5.0 11.0 0.00 0.00 0.00 54 1011.8
20260504013401 72 178 5.0 11.0 0.00 0.00 0.00 55 1011.8
20260504013304 72 148 3.0 11.0 0.00 0.00 0.00 55 1011.7
20260504013202 72 147 2.0 5.0 0.00 0.00 0.00 55 1011.8
20260504013103 72 147 3.0 5.0 0.00 0.00 0.00 55 1011.7
20260504013003 72 147 3.0 5.0 0.00 0.00 0.00 55 1011.8
20260504012902 72 138 2.0 5.0 0.00 0.00 0.00 54 1011.8
20260504012803 72 135 2.0 5.0 0.00 0.00 0.00 54 1011.7
20260504012702 72 155 3.0 5.0 0.00 0.00 0.00 54 1011.7
20260504012602 72 133 3.0 5.0 0.00 0.00 0.00 54 1011.6
20260504012502 72 130 4.0 5.0 0.00 0.00 0.00 54 1011.7
20260504012403 72 158 4.0 9.0 0.00 0.00 0.00 54 1011.6
20260504012304 72 172 4.0 9.0 0.00 0.00 0.00 55 1011.6
20260504012203 72 141 4.0 9.0 0.00 0.00 0.00 55 1011.6
20260504012103 73 155 3.0 9.0 0.00 0.00 0.00 54 1011.6
20260504012005 73 147 2.0 9.0 0.00 0.00 0.00 54 1011.6
20260504011903 73 152 2.0 9.0 0.00 0.00 0.00 54 1011.6
20260504011803 73 114 2.0 9.0 0.00 0.00 0.00 54 1011.7
20260504011702 73 168 3.0 9.0 0.00 0.00 0.00 54 1011.5
20260504011603 73 158 4.0 9.0 0.00 0.00 0.00 54 1011.6
20260504011505 73 110 4.0 9.0 0.00 0.00 0.00 54 1011.7
20260504011403 73 124 4.0 10.0 0.00 0.00 0.00 53 1011.7
20260504011302 73 165 4.0 10.0 0.00 0.00 0.00 53 1011.6
20260504011202 73 151 3.0 10.0 0.00 0.00 0.00 54 1011.6
20260504011103 73 142 4.0 10.0 0.00 0.00 0.00 53 1011.6
20260504011004 73 137 4.0 10.0 0.00 0.00 0.00 53 1011.5
20260504010903 73 134 5.0 10.0 0.00 0.00 0.00 53 1011.6
20260504010802 73 127 5.0 10.0 0.00 0.00 0.00 53 1011.5
20260504010705 73 113 5.0 10.0 0.00 0.00 0.00 53 1011.5
20260504010604 73 154 5.0 10.0 0.00 0.00 0.00 53 1011.6
20260504010505 73 148 6.0 10.0 0.00 0.00 0.00 53 1011.6
20260504010403 73 125 6.0 10.0 0.00 0.00 0.00 53 1011.6
20260504010304 74 131 6.0 10.0 0.00 0.00 0.00 53 1011.6
20260504010202 74 171 6.0 10.0 0.00 0.00 0.00 53 1011.6
20260504010003 74 142 5.0 10.0 0.00 0.00 0.00 52 1011.6
20260504005902 74 144 5.0 10.0 0.00 0.00 0.00 52 1011.6
20260504005804 74 130 5.0 10.0 0.00 0.00 0.00 52 1011.6
20260504005703 74 137 6.0 10.0 0.00 0.00 0.00 52 1011.5
20260504005603 74 137 5.0 10.0 0.00 0.00 0.00 52 1011.6
20260504005502 74 171 4.0 10.0 0.00 0.00 0.00 53 1011.5
20260504005403 74 123 5.0 10.0 0.00 0.00 0.00 52 1011.5
20260504005304 74 125 4.0 10.0 0.00 0.00 0.00 53 1011.5
20260504005203 74 117 3.0 6.0 0.00 0.00 0.00 53 1011.5
20260504005102 74 118 3.0 6.0 0.00 0.00 0.00 52 1011.6
20260504005005 74 161 4.0 6.0 0.00 0.00 0.00 51 1011.5
20260504004900 74 158 4.0 6.0 0.00 0.00 0.00 51 1011.5
20260504004754 74 179 3.0 10.0 0.00 0.00 0.00 52 1011.5
20260504004654 74 173 3.0 10.0 0.00 0.00 0.00 52 1011.5
20260504004552 75 133 2.0 10.0 0.00 0.00 0.00 52 1011.5
20260504004447 75 144 2.0 10.0 0.00 0.00 0.00 52 1011.5
20260504004343 75 158 3.0 10.0 0.00 0.00 0.00 51 1011.5
20260504004242 75 151 3.0 10.0 0.00 0.00 0.00 51 1011.5
20260504004133 75 110 2.0 10.0 0.00 0.00 0.00 51 1011.5
20260504004031 75 159 2.0 10.0 0.00 0.00 0.00 51 1011.5
20260504003933 75 113 4.0 10.0 0.00 0.00 0.00 50 1011.5
20260504003833 75 178 5.0 10.0 0.00 0.00 0.00 50 1011.5
20260504003732 75 172 3.0 7.0 0.00 0.00 0.00 50 1011.6
20260504003632 75 173 3.0 6.0 0.00 0.00 0.00 50 1011.7
20260504003532 76 188 4.0 6.0 0.00 0.00 0.00 50 1011.7
20260504003431 76 140 4.0 6.0 0.00 0.00 0.00 50 1011.7
20260504003332 76 171 3.0 6.0 0.00 0.00 0.00 50 1011.8
20260504003232 76 149 2.0 6.0 0.00 0.00 0.00 50 1011.7
20260504003131 76 162 4.0 6.0 0.00 0.00 0.00 50 1011.7
20260504003032 76 159 4.0 7.0 0.00 0.00 0.00 50 1011.7
20260504002930 76 120 4.0 7.0 0.00 0.00 0.00 50 1011.7
20260504002831 75 149 4.0 7.0 0.00 0.00 0.00 50 1011.7
20260504002732 76 185 4.0 7.0 0.00 0.00 0.00 50 1011.7
20260504002633 76 168 4.0 7.0 0.00 0.00 0.00 50 1011.7
20260504002532 76 172 4.0 7.0 0.00 0.00 0.00 50 1011.7
20260504002430 76 154 3.0 7.0 0.00 0.00 0.00 50 1011.7
20260504002332 76 148 3.0 7.0 0.00 0.00 0.00 49 1011.6
20260504002232 76 148 4.0 7.0 0.00 0.00 0.00 49 1011.6
20260504002132 76 131 4.0 7.0 0.00 0.00 0.00 49 1011.6
20260504002031 76 168 4.0 7.0 0.00 0.00 0.00 48 1011.6
20260504001933 76 172 3.0 6.0 0.00 0.00 0.00 48 1011.6
20260504001831 76 179 3.0 6.0 0.00 0.00 0.00 47 1011.6
20260504001731 76 157 4.0 6.0 0.00 0.00 0.00 46 1011.5
20260504001631 76 130 3.0 5.0 0.00 0.00 0.00 46 1011.5
20260504001531 76 159 1.0 5.0 0.00 0.00 0.00 45 1011.5
20260504001432 76 154 1.0 5.0 0.00 0.00 0.00 46 1011.5
20260504001331 77 157 0.0 5.0 0.00 0.00 0.00 46 1011.5
20260504001231 77 157 0.0 5.0 0.00 0.00 0.00 45 1011.5
20260504001132 77 157 0.0 5.0 0.00 0.00 0.00 45 1011.4
20260504001031 77 157 1.0 5.0 0.00 0.00 0.00 44 1011.5
20260504000931 77 157 3.0 5.0 0.00 0.00 0.00 44 1011.6
20260504000833 77 142 4.0 5.0 0.00 0.00 0.00 45 1011.5
20260504000731 77 131 4.0 5.0 0.00 0.00 0.00 45 1011.6
20260504000632 77 166 2.0 4.0 0.00 0.00 0.00 44 1011.5
20260504000532 77 173 1.0 4.0 0.00 0.00 0.00 44 1011.6
20260504000433 77 171 1.0 5.0 0.00 0.00 0.00 44 1011.6
20260504000332 77 172 2.0 5.0 0.00 0.00 0.00 45 1011.7
20260504000226 77 183 2.0 5.0 0.00 0.00 0.00 45 1011.6
20260504000123 77 196 2.0 5.0 0.00 0.00 0.00 44 1011.6
20260504000024 77 158 2.0 5.0 0.00 0.00 0.00 44 1011.5
20260503235921 77 157 2.0 5.0 0.00 0.00 0.00 43 1011.5
20260503235824 77 171 2.0 5.0 0.00 0.00 0.00 43 1011.5
20260503235721 77 175 2.0 5.0 0.00 0.00 0.00 43 1011.5
20260503235624 77 168 3.0 5.0 0.00 0.00 0.00 42 1011.5
20260503235522 77 178 3.0 5.0 0.00 0.00 0.00 43 1011.5
20260503235423 78 165 2.0 5.0 0.00 0.00 0.00 43 1011.5
20260503235322 78 159 2.0 5.0 0.00 0.00 0.00 43 1011.5
20260503235221 78 158 1.0 6.0 0.00 0.00 0.00 43 1011.7
20260503235122 78 169 1.0 6.0 0.00 0.00 0.00 43 1011.7
20260503235023 78 171 3.0 6.0 0.00 0.00 0.00 43 1011.6
20260503234922 78 173 4.0 6.0 0.00 0.00 0.00 43 1011.6
20260503234822 78 151 3.0 6.0 0.00 0.00 0.00 43 1011.7
20260503234722 78 138 4.0 6.0 0.00 0.00 0.00 43 1011.6
20260503234621 78 155 4.0 6.0 0.00 0.00 0.00 43 1011.6
20260503234521 78 149 3.0 6.0 0.00 0.00 0.00 42 1011.6
20260503234423 78 138 3.0 6.0 0.00 0.00 0.00 42 1011.7
20260503234322 78 137 3.0 6.0 0.00 0.00 0.00 42 1011.7
20260503234220 78 145 2.0 6.0 0.00 0.00 0.00 42 1011.7
20260503234122 78 199 3.0 6.0 0.00 0.00 0.00 42 1011.7
20260503234022 78 182 4.0 6.0 0.00 0.00 0.00 41 1011.8
20260503233920 78 161 4.0 6.0 0.00 0.00 0.00 41 1011.7
20260503233821 78 189 4.0 6.0 0.00 0.00 0.00 41 1011.6
20260503233722 78 157 3.0 6.0 0.00 0.00 0.00 40 1011.6
20260503233622 78 204 4.0 6.0 0.00 0.00 0.00 41 1011.5
20260503233521 78 141 3.0 6.0 0.00 0.00 0.00 41 1011.5
20260503233422 78 123 2.0 6.0 0.00 0.00 0.00 41 1011.5
20260503233321 78 158 2.0 6.0 0.00 0.00 0.00 40 1011.6
20260503233220 78 168 3.0 6.0 0.00 0.00 0.00 40 1011.6
20260503233123 78 125 3.0 6.0 0.00 0.00 0.00 41 1011.6
20260503233022 78 138 2.0 5.0 0.00 0.00 0.00 41 1011.6
20260503232923 78 171 2.0 6.0 0.00 0.00 0.00 41 1011.6
20260503232821 78 171 3.0 6.0 0.00 0.00 0.00 41 1011.7
20260503232723 78 182 3.0 6.0 0.00 0.00 0.00 41 1011.7
20260503232622 78 179 2.0 6.0 0.00 0.00 0.00 40 1011.7
20260503232522 78 173 2.0 6.0 0.00 0.00 0.00 40 1011.7
20260503232421 78 175 3.0 6.0 0.00 0.00 0.00 40 1011.7
20260503232321 78 169 3.0 7.0 0.00 0.00 0.00 41 1011.8
20260503232220 78 152 2.0 7.0 0.00 0.00 0.00 40 1011.8
20260503232121 78 173 3.0 7.0 0.00 0.00 0.00 39 1011.8
20260503232021 79 200 4.0 7.0 0.00 0.00 0.00 39 1011.7
20260503231920 79 188 3.0 7.0 0.00 0.00 0.00 39 1011.7
20260503231822 79 168 3.0 7.0 0.00 0.00 0.00 39 1011.8
20260503231722 79 145 3.0 7.0 0.00 0.00 0.00 39 1011.7
20260503231622 79 165 4.0 7.0 0.00 0.00 0.00 40 1011.9
20260503231520 79 171 4.0 7.0 0.00 0.00 0.00 40 1011.9
20260503231421 79 190 4.0 7.0 0.00 0.00 0.00 40 1012.0
20260503231321 79 133 3.0 7.0 0.00 0.00 0.00 40 1011.9
20260503231220 79 114 2.0 7.0 0.00 0.00 0.00 39 1011.9
20260503231122 79 142 1.0 7.0 0.00 0.00 0.00 39 1011.9
20260503231020 79 169 1.0 7.0 0.00 0.00 0.00 40 1011.9
20260503230923 79 171 2.0 7.0 0.00 0.00 0.00 40 1011.9
20260503230823 79 175 3.0 7.0 0.00 0.00 0.00 39 1011.9
20260503230720 79 189 4.0 7.0 0.00 0.00 0.00 39 1011.9
20260503230620 79 173 3.0 7.0 0.00 0.00 0.00 43 1011.9
20260503230523 79 124 3.0 7.0 0.00 0.00 0.00 43 1011.9
20260503230422 79 106 2.0 7.0 0.00 0.00 0.00 40 1011.9
20260503230320 79 188 2.0 7.0 0.00 0.00 0.00 40 1011.9
20260503230222 79 189 3.0 7.0 0.00 0.00 0.00 40 1011.8
20260503230120 79 185 4.0 7.0 0.00 0.00 0.00 40 1011.9
20260503230020 79 190 4.0 7.0 0.00 0.00 0.00 40 1011.9
20260503225921 79 133 3.0 7.0 0.00 0.00 0.00 40 1011.9
20260503225821 79 171 3.0 9.0 0.00 0.00 0.00 41 1011.9
20260503225720 79 149 3.0 9.0 0.00 0.00 0.00 40 1011.8
20260503225623 79 168 3.0 9.0 0.00 0.00 0.00 40 1011.8
20260503225520 79 210 3.0 9.0 0.00 0.00 0.00 41 1011.8
20260503225419 79 175 3.0 9.0 0.00 0.00 0.00 40 1011.8
20260503225319 79 197 2.0 9.0 0.00 0.00 0.00 39 1011.8
20260503225222 79 195 2.0 9.0 0.00 0.00 0.00 39 1011.8
20260503225120 79 175 3.0 9.0 0.00 0.00 0.00 39 1011.8
20260503225020 79 125 5.0 9.0 0.00 0.00 0.00 40 1011.9
20260503224921 79 102 4.0 9.0 0.00 0.00 0.00 40 1011.8
20260503224820 79 109 4.0 7.0 0.00 0.00 0.00 39 1011.9
20260503224719 79 133 5.0 7.0 0.00 0.00 0.00 40 1012.0
20260503224620 79 188 4.0 7.0 0.00 0.00 0.00 40 1011.9
20260503224521 79 144 3.0 7.0 0.00 0.00 0.00 40 1012.0
20260503224421 79 199 2.0 7.0 0.00 0.00 0.00 40 1012.0
20260503224319 80 169 3.0 7.0 0.00 0.00 0.00 40 1012.1
20260503224219 80 157 3.0 7.0 0.00 0.00 0.00 39 1012.1
20260503224119 80 164 4.0 7.0 0.00 0.00 0.00 39 1012.1
20260503224021 80 154 4.0 7.0 0.00 0.00 0.00 40 1012.2
20260503223921 80 148 3.0 7.0 0.00 0.00 0.00 40 1012.2
20260503223820 80 157 3.0 7.0 0.00 0.00 0.00 40 1012.1
20260503223720 80 142 3.0 7.0 0.00 0.00 0.00 40 1012.1
20260503223619 80 130 2.0 6.0 0.00 0.00 0.00 40 1012.2
20260503223520 80 144 2.0 6.0 0.00 0.00 0.00 40 1012.2
20260503223419 80 142 2.0 6.0 0.00 0.00 0.00 40 1012.2
20260503223321 80 140 3.0 6.0 0.00 0.00 0.00 41 1012.2
20260503223220 80 159 3.0 6.0 0.00 0.00 0.00 41 1012.3
20260503223120 80 182 3.0 6.0 0.00 0.00 0.00 41 1012.2
20260503223020 80 173 2.0 4.0 0.00 0.00 0.00 40 1012.2
20260503222919 80 175 2.0 4.0 0.00 0.00 0.00 40 1012.2
20260503222821 80 210 2.0 6.0 0.00 0.00 0.00 39 1012.2
20260503222719 80 210 2.0 6.0 0.00 0.00 0.00 41 1012.2
20260503222621 80 159 2.0 6.0 0.00 0.00 0.00 41 1012.2
20260503222519 80 117 1.0 6.0 0.00 0.00 0.00 42 1012.1
20260503222421 80 111 1.0 10.0 0.00 0.00 0.00 40 1012.2
20260503222320 80 125 2.0 10.0 0.00 0.00 0.00 41 1012.1
20260503222220 79 125 2.0 10.0 0.00 0.00 0.00 41 1012.2
20260503222119 79 121 2.0 11.0 0.00 0.00 0.00 40 1012.1
20260503222019 79 168 3.0 11.0 0.00 0.00 0.00 38 1012.2
20260503221920 79 162 3.0 11.0 0.00 0.00 0.00 39 1012.2
20260503221820 79 147 3.0 11.0 0.00 0.00 0.00 38 1012.3
20260503221720 79 154 3.0 11.0 0.00 0.00 0.00 40 1012.2
20260503221621 79 147 5.0 11.0 0.00 0.00 0.00 37 1012.3
20260503221520 80 104 6.0 11.0 0.00 0.00 0.00 39 1012.3
20260503221420 80 103 6.0 11.0 0.00 0.00 0.00 38 1012.4
20260503221320 80 124 7.0 11.0 0.00 0.00 0.00 39 1012.4
20260503221219 80 148 6.0 11.0 0.00 0.00 0.00 39 1012.4
20260503221120 80 123 4.0 7.0 0.00 0.00 0.00 39 1012.5
20260503221020 80 111 3.0 7.0 0.00 0.00 0.00 39 1012.5
20260503220921 80 145 3.0 7.0 0.00 0.00 0.00 38 1012.6
20260503220820 81 183 2.0 7.0 0.00 0.00 0.00 38 1012.5
20260503220720 81 149 2.0 7.0 0.00 0.00 0.00 37 1012.5
20260503220621 81 149 3.0 7.0 0.00 0.00 0.00 38 1012.5
20260503220519 81 140 4.0 7.0 0.00 0.00 0.00 38 1012.6
20260503220418 81 151 4.0 7.0 0.00 0.00 0.00 38 1012.6
20260503220319 81 141 2.0 5.0 0.00 0.00 0.00 39 1012.6
20260503220220 81 133 2.0 5.0 0.00 0.00 0.00 38 1012.6
20260503220119 81 133 0.0 5.0 0.00 0.00 0.00 37 1012.6
20260503220021 81 133 0.0 6.0 0.00 0.00 0.00 37 1012.6
20260503215919 81 133 1.0 6.0 0.00 0.00 0.00 38 1012.6
20260503215819 80 133 1.0 6.0 0.00 0.00 0.00 38 1012.6
20260503215720 80 133 3.0 6.0 0.00 0.00 0.00 39 1012.6
20260503215619 80 114 3.0 6.0 0.00 0.00 0.00 39 1012.5
20260503215520 80 118 3.0 7.0 0.00 0.00 0.00 39 1012.5
20260503215419 80 107 3.0 7.0 0.00 0.00 0.00 39 1012.5
20260503215318 80 125 3.0 7.0 0.00 0.00 0.00 39 1012.5
20260503215219 80 121 4.0 7.0 0.00 0.00 0.00 39 1012.5
20260503215120 80 124 3.0 7.0 0.00 0.00 0.00 39 1012.5
20260503215020 80 162 4.0 7.0 0.00 0.00 0.00 39 1012.5
20260503214918 80 159 4.0 10.0 0.00 0.00 0.00 40 1012.5
20260503214819 80 110 4.0 10.0 0.00 0.00 0.00 40 1012.5
20260503214718 80 106 5.0 10.0 0.00 0.00 0.00 40 1012.5
20260503214619 80 83 5.0 10.0 0.00 0.00 0.00 40 1012.5
20260503214519 80 113 4.0 10.0 0.00 0.00 0.00 40 1012.6
20260503214419 80 128 4.0 10.0 0.00 0.00 0.00 39 1012.6
20260503214319 80 145 4.0 10.0 0.00 0.00 0.00 39 1012.5
20260503214218 80 113 4.0 10.0 0.00 0.00 0.00 39 1012.5
20260503214119 80 76 5.0 10.0 0.00 0.00 0.00 39 1012.5
20260503214018 80 103 6.0 10.0 0.00 0.00 0.00 39 1012.5
20260503213920 80 97 5.0 7.0 0.00 0.00 0.00 40 1012.5
20260503213819 80 137 6.0 7.0 0.00 0.00 0.00 42 1012.4
20260503213720 80 128 4.0 7.0 0.00 0.00 0.00 43 1012.5
20260503213618 79 113 2.0 7.0 0.00 0.00 0.00 39 1012.5
20260503213520 79 137 1.0 7.0 0.00 0.00 0.00 39 1012.5
20260503213418 79 137 1.0 7.0 0.00 0.00 0.00 39 1012.5
20260503213318 79 137 2.0 7.0 0.00 0.00 0.00 38 1012.6
20260503213220 79 127 3.0 7.0 0.00 0.00 0.00 39 1012.6
20260503213119 79 195 2.0 9.0 0.00 0.00 0.00 39 1012.7
20260503213018 79 106 2.0 9.0 0.00 0.00 0.00 39 1012.7
20260503212918 80 106 4.0 9.0 0.00 0.00 0.00 39 1012.7
20260503212819 80 107 5.0 9.0 0.00 0.00 0.00 38 1012.9
20260503212719 80 117 5.0 9.0 0.00 0.00 0.00 40 1012.8
20260503212618 80 106 4.0 9.0 0.00 0.00 0.00 40 1012.9
20260503212519 80 109 4.0 9.0 0.00 0.00 0.00 41 1013.0
20260503212418 80 107 3.0 9.0 0.00 0.00 0.00 40 1013.1
20260503212318 80 78 5.0 9.0 0.00 0.00 0.00 40 1013.1
20260503212219 80 92 4.0 10.0 0.00 0.00 0.00 41 1013.1
20260503212117 80 106 3.0 10.0 0.00 0.00 0.00 41 1013.1
20260503212019 80 55 4.0 10.0 0.00 0.00 0.00 41 1013.0
20260503211919 80 42 4.0 10.0 0.00 0.00 0.00 41 1013.2
20260503211819 80 71 3.0 10.0 0.00 0.00 0.00 43 1013.1
20260503211718 80 79 4.0 10.0 0.00 0.00 0.00 43 1013.1
20260503211617 80 83 5.0 10.0 0.00 0.00 0.00 40 1013.1
20260503211520 80 96 5.0 10.0 0.00 0.00 0.00 40 1013.1
20260503211419 80 110 7.0 10.0 0.00 0.00 0.00 40 1013.1
20260503211317 80 102 7.0 10.0 0.00 0.00 0.00 40 1013.0
20260503211218 80 118 6.0 7.0 0.00 0.00 0.00 40 1013.0
20260503211119 80 111 4.0 7.0 0.00 0.00 0.00 40 1013.1
20260503211018 80 120 3.0 7.0 0.00 0.00 0.00 42 1013.0
20260503210917 80 151 2.0 7.0 0.00 0.00 0.00 41 1013.1
20260503210819 80 157 2.0 7.0 0.00 0.00 0.00 41 1013.0
20260503210719 80 137 5.0 7.0 0.00 0.00 0.00 42 1013.1
20260503210619 80 123 6.0 7.0 0.00 0.00 0.00 44 1013.1
20260503210517 80 102 5.0 7.0 0.00 0.00 0.00 44 1013.2
20260503210418 79 145 4.0 7.0 0.00 0.00 0.00 44 1013.1
20260503210317 79 100 4.0 5.0 0.00 0.00 0.00 44 1013.2
20260503210219 78 76 3.0 6.0 0.00 0.00 0.00 42 1013.2
20260503210120 79 59 3.0 6.0 0.00 0.00 0.00 43 1013.2
20260503210018 79 61 3.0 6.0 0.00 0.00 0.00 43 1013.1
20260503205917 79 63 4.0 6.0 0.00 0.00 0.00 41 1013.2
20260503205818 80 51 4.0 6.0 0.00 0.00 0.00 42 1013.2
20260503205718 80 49 4.0 6.0 0.00 0.00 0.00 42 1013.3
20260503205617 80 63 3.0 6.0 0.00 0.00 0.00 41 1013.2
20260503205518 81 94 3.0 6.0 0.00 0.00 0.00 41 1013.2
20260503205419 80 111 4.0 6.0 0.00 0.00 0.00 42 1013.3
20260503205318 80 106 3.0 6.0 0.00 0.00 0.00 42 1013.2
20260503205218 80 151 4.0 5.0 0.00 0.00 0.00 40 1013.3
20260503205118 80 111 2.0 5.0 0.00 0.00 0.00 42 1013.3
20260503205017 80 131 1.0 4.0 0.00 0.00 0.00 38 1013.3
20260503204919 80 169 2.0 4.0 0.00 0.00 0.00 41 1013.4
20260503204817 80 169 2.0 4.0 0.00 0.00 0.00 41 1013.4
20260503204719 80 168 2.0 4.0 0.00 0.00 0.00 40 1013.4
20260503204618 80 169 3.0 4.0 0.00 0.00 0.00 38 1013.4
20260503204517 80 145 2.0 4.0 0.00 0.00 0.00 38 1013.4
20260503204418 80 213 2.0 4.0 0.00 0.00 0.00 40 1013.4
20260503204318 80 224 1.0 4.0 0.00 0.00 0.00 42 1013.4
20260503204218 80 226 1.0 4.0 0.00 0.00 0.00 42 1013.5
20260503204116 80 0 1.0 4.0 0.00 0.00 0.00 43 1013.5
20260503204018 80 0 0.0 7.0 0.00 0.00 0.00 39 1013.5
20260503203917 79 0 0.0 7.0 0.00 0.00 0.00 39 1013.5
20260503203820 79 0 1.0 7.0 0.00 0.00 0.00 38 1013.6
20260503203718 80 0 2.0 7.0 0.00 0.00 0.00 43 1013.6
20260503203619 80 0 2.0 9.0 0.00 0.00 0.00 43 1013.6
20260503203518 80 93 2.0 9.0 0.00 0.00 0.00 39 1013.5
20260503203418 80 93 2.0 9.0 0.00 0.00 0.00 44 1013.6
20260503203318 80 94 4.0 9.0 0.00 0.00 0.00 41 1013.7
20260503203218 80 80 4.0 9.0 0.00 0.00 0.00 41 1013.6
20260503203116 80 82 5.0 9.0 0.00 0.00 0.00 41 1013.7
20260503203018 80 94 4.0 9.0 0.00 0.00 0.00 38 1013.7
20260503202916 80 96 4.0 9.0 0.00 0.00 0.00 42 1013.7
20260503202817 80 127 6.0 9.0 0.00 0.00 0.00 42 1013.7
20260503202718 80 106 5.0 9.0 0.00 0.00 0.00 42 1013.7
20260503202617 80 104 4.0 9.0 0.00 0.00 0.00 42 1013.8
20260503202517 80 106 5.0 9.0 0.00 0.00 0.00 42 1013.8
20260503202418 80 93 5.0 9.0 0.00 0.00 0.00 40 1013.9
20260503202316 80 93 4.0 9.0 0.00 0.00 0.00 40 1013.8
20260503202216 80 86 4.0 9.0 0.00 0.00 0.00 40 1013.8
20260503202118 80 89 6.0 6.0 0.00 0.00 0.00 40 1013.8
20260503202017 80 82 5.0 6.0 0.00 0.00 0.00 40 1013.8
20260503201918 80 125 4.0 7.0 0.00 0.00 0.00 43 1013.8
20260503201817 80 241 3.0 7.0 0.00 0.00 0.00 41 1013.7
20260503201716 80 200 2.0 7.0 0.00 0.00 0.00 39 1013.8
20260503201619 80 164 3.0 10.0 0.00 0.00 0.00 43 1013.8
20260503201517 80 149 4.0 10.0 0.00 0.00 0.00 43 1013.9
20260503201417 80 144 3.0 10.0 0.00 0.00 0.00 43 1013.9
20260503201316 80 135 2.0 10.0 0.00 0.00 0.00 40 1013.9
20260503201217 80 172 2.0 10.0 0.00 0.00 0.00 39 1014.0
20260503201116 80 169 4.0 10.0 0.00 0.00 0.00 39 1014.0
20260503201017 80 151 6.0 10.0 0.00 0.00 0.00 43 1014.0
20260503200916 80 107 6.0 10.0 0.00 0.00 0.00 43 1014.1
20260503200817 80 109 6.0 10.0 0.00 0.00 0.00 43 1014.1
20260503200718 80 110 4.0 10.0 0.00 0.00 0.00 43 1014.1
20260503200618 80 159 2.0 4.0 0.00 0.00 0.00 41 1014.1
20260503200516 80 172 2.0 3.0 0.00 0.00 0.00 42 1014.1
20260503200416 80 175 2.0 4.0 0.00 0.00 0.00 38 1014.1
20260503200316 80 173 1.0 5.0 0.00 0.00 0.00 38 1014.2
20260503200217 80 168 2.0 6.0 0.00 0.00 0.00 38 1014.2
20260503200117 80 166 2.0 7.0 0.00 0.00 0.00 40 1014.2
20260503200018 80 106 1.0 7.0 0.00 0.00 0.00 39 1014.2
20260503195917 80 97 2.0 7.0 0.00 0.00 0.00 45 1014.1
20260503195816 80 72 2.0 7.0 0.00 0.00 0.00 45 1014.2
20260503195717 79 44 2.0 10.0 0.00 0.00 0.00 43 1014.2
20260503195616 79 44 2.0 10.0 0.00 0.00 0.00 42 1014.3
20260503195517 79 45 3.0 10.0 0.00 0.00 0.00 41 1014.3
20260503195415 79 49 4.0 10.0 0.00 0.00 0.00 41 1014.3
20260503195316 79 55 4.0 10.0 0.00 0.00 0.00 40 1014.3
20260503195217 79 86 4.0 10.0 0.00 0.00 0.00 41 1014.3
20260503195117 79 71 4.0 10.0 0.00 0.00 0.00 42 1014.3
20260503195017 80 103 4.0 10.0 0.00 0.00 0.00 42 1014.4
20260503194915 80 79 5.0 10.0 0.00 0.00 0.00 43 1014.3
20260503194815 79 103 6.0 10.0 0.00 0.00 0.00 43 1014.3
20260503194717 80 96 5.0 10.0 0.00 0.00 0.00 41 1014.4
20260503194617 80 111 4.0 7.0 0.00 0.00 0.00 40 1014.5
20260503194515 80 118 3.0 9.0 0.00 0.00 0.00 40 1014.4
20260503194417 80 166 2.0 9.0 0.00 0.00 0.00 40 1014.5
20260503194317 80 154 2.0 9.0 0.00 0.00 0.00 39 1014.4
20260503194215 80 152 3.0 9.0 0.00 0.00 0.00 42 1014.5
20260503194116 80 151 4.0 9.0 0.00 0.00 0.00 42 1014.5
20260503194016 80 118 2.0 9.0 0.00 0.00 0.00 42 1014.5
20260503193916 80 102 2.0 9.0 0.00 0.00 0.00 42 1014.5
20260503193817 80 92 3.0 9.0 0.00 0.00 0.00 39 1014.6
20260503193715 80 90 4.0 9.0 0.00 0.00 0.00 40 1014.6
20260503193615 80 104 5.0 9.0 0.00 0.00 0.00 40 1014.6
20260503193515 80 137 3.0 9.0 0.00 0.00 0.00 40 1014.6
20260503193416 80 161 2.0 9.0 0.00 0.00 0.00 42 1014.6
20260503193315 80 157 3.0 9.0 0.00 0.00 0.00 42 1014.6
20260503193215 80 135 5.0 9.0 0.00 0.00 0.00 42 1014.7
20260503193117 80 149 6.0 9.0 0.00 0.00 0.00 42 1014.7
20260503193017 80 104 5.0 9.0 0.00 0.00 0.00 42 1014.7
20260503192916 80 104 4.0 7.0 0.00 0.00 0.00 43 1014.7
20260503192815 80 107 3.0 7.0 0.00 0.00 0.00 41 1014.7
20260503192715 80 142 2.0 7.0 0.00 0.00 0.00 42 1014.7
20260503192617 80 111 3.0 7.0 0.00 0.00 0.00 40 1014.8
20260503192515 80 111 4.0 7.0 0.00 0.00 0.00 43 1014.7
20260503192415 80 151 4.0 7.0 0.00 0.00 0.00 42 1014.8
20260503192316 80 209 3.0 7.0 0.00 0.00 0.00 42 1014.8
20260503192216 80 76 2.0 10.0 0.00 0.00 0.00 42 1014.8
20260503192117 80 78 2.0 10.0 0.00 0.00 0.00 44 1014.9
20260503192016 80 78 2.0 10.0 0.00 0.00 0.00 45 1014.8
20260503191917 79 62 1.0 10.0 0.00 0.00 0.00 41 1014.8
20260503191816 79 85 3.0 10.0 0.00 0.00 0.00 41 1014.8
20260503191716 79 85 3.0 10.0 0.00 0.00 0.00 41 1014.8
20260503191615 79 85 3.0 10.0 0.00 0.00 0.00 41 1014.8
20260503191516 79 85 4.0 10.0 0.00 0.00 0.00 41 1014.8
20260503191417 79 102 4.0 10.0 0.00 0.00 0.00 44 1014.9
20260503191314 79 85 4.0 10.0 0.00 0.00 0.00 42 1014.9
20260503191216 79 76 3.0 10.0 0.00 0.00 0.00 39 1014.8
20260503191114 79 72 4.0 10.0 0.00 0.00 0.00 39 1014.9
20260503191015 79 73 4.0 10.0 0.00 0.00 0.00 44 1014.9
20260503190916 79 62 4.0 9.0 0.00 0.00 0.00 43 1015.0
20260503190815 79 82 6.0 9.0 0.00 0.00 0.00 44 1015.0
20260503190715 79 97 6.0 9.0 0.00 0.00 0.00 43 1015.0
20260503190616 79 113 3.0 7.0 0.00 0.00 0.00 42 1015.0
20260503190511 79 178 2.0 7.0 0.00 0.00 0.00 41 1015.1
20260503190408 79 178 2.0 7.0 0.00 0.00 0.00 41 1015.2
20260503190307 79 178 3.0 7.0 0.00 0.00 0.00 40 1015.1
20260503190206 79 240 2.0 7.0 0.00 0.00 0.00 41 1015.2
20260503190103 79 147 1.0 7.0 0.00 0.00 0.00 41 1015.1
20260503190005 79 145 3.0 7.0 0.00 0.00 0.00 41 1015.1
20260503185903 79 147 4.0 11.0 0.00 0.00 0.00 43 1015.3
20260503185802 78 128 4.0 11.0 0.00 0.00 0.00 43 1015.2
20260503185701 78 104 3.0 11.0 0.00 0.00 0.00 40 1015.2
20260503185604 79 111 3.0 11.0 0.00 0.00 0.00 40 1015.2
20260503185503 79 87 5.0 11.0 0.00 0.00 0.00 40 1015.3
20260503185404 79 69 4.0 11.0 0.00 0.00 0.00 42 1015.2
20260503185304 79 71 2.0 13.0 0.00 0.00 0.00 42 1015.2
20260503185202 79 103 2.0 13.0 0.00 0.00 0.00 42 1015.3
20260503185102 79 102 4.0 13.0 0.00 0.00 0.00 43 1015.3
20260503185002 79 113 6.0 13.0 0.00 0.00 0.00 45 1015.3
20260503184904 79 106 6.0 13.0 0.00 0.00 0.00 45 1015.3
20260503184804 79 110 5.0 13.0 0.00 0.00 0.00 43 1015.3
20260503184702 79 164 5.0 13.0 0.00 0.00 0.00 43 1015.3
20260503184604 79 97 5.0 13.0 0.00 0.00 0.00 43 1015.3
20260503184503 79 144 7.0 13.0 0.00 0.00 0.00 41 1015.4
20260503184402 79 121 6.0 13.0 0.00 0.00 0.00 45 1015.4
20260503184304 79 154 2.0 4.0 0.00 0.00 0.00 43 1015.4
20260503184201 79 158 0.0 4.0 0.00 0.00 0.00 43 1015.4
20260503184104 79 158 0.0 4.0 0.00 0.00 0.00 40 1015.4
20260503184002 79 158 1.0 4.0 0.00 0.00 0.00 41 1015.4
20260503183903 79 158 2.0 4.0 0.00 0.00 0.00 42 1015.4
20260503183803 79 159 2.0 4.0 0.00 0.00 0.00 42 1015.4
20260503183703 78 159 2.0 4.0 0.00 0.00 0.00 43 1015.5
20260503183602 78 161 1.0 4.0 0.00 0.00 0.00 42 1015.4
20260503183502 78 161 2.0 5.0 0.00 0.00 0.00 42 1015.3
20260503183403 78 161 2.0 9.0 0.00 0.00 0.00 41 1015.4
20260503183303 78 157 2.0 12.0 0.00 0.00 0.00 41 1015.4
20260503183203 78 149 2.0 12.0 0.00 0.00 0.00 42 1015.5
20260503183105 78 87 1.0 12.0 0.00 0.00 0.00 42 1015.4
20260503183003 78 34 0.0 12.0 0.00 0.00 0.00 42 1015.5
20260503182903 78 32 1.0 12.0 0.00 0.00 0.00 40 1015.5
20260503182803 78 32 3.0 12.0 0.00 0.00 0.00 40 1015.6
20260503182702 78 32 4.0 12.0 0.00 0.00 0.00 40 1015.6
20260503182602 79 32 4.0 12.0 0.00 0.00 0.00 44 1015.6
20260503182505 79 87 6.0 12.0 0.00 0.00 0.00 43 1015.6
20260503182403 79 100 7.0 12.0 0.00 0.00 0.00 43 1015.6
20260503182304 79 97 6.0 11.0 0.00 0.00 0.00 42 1015.6
20260503182203 79 100 5.0 7.0 0.00 0.00 0.00 44 1015.6
20260503182103 79 154 4.0 6.0 0.00 0.00 0.00 45 1015.6
20260503182005 79 169 2.0 5.0 0.00 0.00 0.00 46 1015.6
20260503181902 78 176 2.0 5.0 0.00 0.00 0.00 46 1015.7
20260503181803 78 182 3.0 6.0 0.00 0.00 0.00 46 1015.7
20260503181703 78 190 3.0 7.0 0.00 0.00 0.00 44 1015.7
20260503181603 78 223 1.0 7.0 0.00 0.00 0.00 43 1015.7
20260503181504 77 56 0.0 7.0 0.00 0.00 0.00 43 1015.9
20260503181403 77 56 1.0 7.0 0.00 0.00 0.00 44 1015.8
20260503181302 77 56 2.0 7.0 0.00 0.00 0.00 43 1015.9
20260503181202 77 56 3.0 7.0 0.00 0.00 0.00 42 1015.8
20260503181103 77 58 4.0 7.0 0.00 0.00 0.00 42 1015.8
20260503181005 78 58 4.0 7.0 0.00 0.00 0.00 42 1015.9
20260503180902 78 92 5.0 7.0 0.00 0.00 0.00 42 1015.9
20260503180804 78 103 4.0 7.0 0.00 0.00 0.00 43 1015.9
20260503180703 78 120 2.0 7.0 0.00 0.00 0.00 42 1015.9
20260503180603 78 134 2.0 7.0 0.00 0.00 0.00 47 1015.9
20260503180503 78 133 1.0 7.0 0.00 0.00 0.00 47 1015.9
20260503180403 78 68 1.0 7.0 0.00 0.00 0.00 44 1015.9
20260503180302 78 68 1.0 7.0 0.00 0.00 0.00 44 1015.9
20260503180202 78 66 2.0 7.0 0.00 0.00 0.00 45 1015.9
20260503180004 78 87 4.0 7.0 0.00 0.00 0.00 44 1016.0
20260503175904 78 111 5.0 9.0 0.00 0.00 0.00 44 1015.9
20260503175804 77 96 4.0 9.0 0.00 0.00 0.00 44 1016.0
20260503175703 77 92 4.0 9.0 0.00 0.00 0.00 42 1016.0
20260503175602 78 93 4.0 9.0 0.00 0.00 0.00 43 1016.1
20260503175503 78 85 5.0 9.0 0.00 0.00 0.00 44 1016.1
20260503175402 78 109 6.0 9.0 0.00 0.00 0.00 44 1016.1
20260503175305 78 106 4.0 9.0 0.00 0.00 0.00 47 1016.1
20260503175202 78 62 3.0 9.0 0.00 0.00 0.00 43 1016.1
20260503175103 78 35 4.0 9.0 0.00 0.00 0.00 43 1016.1
20260503175003 78 99 5.0 9.0 0.00 0.00 0.00 43 1016.2
20260503174903 78 109 4.0 6.0 0.00 0.00 0.00 42 1016.2
20260503174801 78 102 4.0 5.0 0.00 0.00 0.00 44 1016.3
20260503174703 78 104 2.0 5.0 0.00 0.00 0.00 46 1016.2
20260503174603 78 106 2.0 4.0 0.00 0.00 0.00 46 1016.3
20260503174502 77 106 2.0 5.0 0.00 0.00 0.00 46 1016.4
20260503174402 77 25 2.0 7.0 0.00 0.00 0.00 47 1016.4
20260503174304 76 274 2.0 7.0 0.00 0.00 0.00 45 1016.4
20260503174203 76 275 3.0 7.0 0.00 0.00 0.00 46 1016.4
20260503174102 76 275 3.0 7.0 0.00 0.00 0.00 45 1016.3
20260503174003 76 275 3.0 7.0 0.00 0.00 0.00 44 1016.4
20260503173903 76 275 1.0 10.0 0.00 0.00 0.00 42 1016.5
20260503173804 77 118 0.0 11.0 0.00 0.00 0.00 42 1016.5
20260503173702 77 118 1.0 11.0 0.00 0.00 0.00 42 1016.6
20260503173603 77 118 4.0 11.0 0.00 0.00 0.00 42 1016.6
20260503173506 77 99 3.0 11.0 0.00 0.00 0.00 44 1016.5
20260503173402 77 125 2.0 11.0 0.00 0.00 0.00 43 1016.6
20260503173303 77 92 3.0 11.0 0.00 0.00 0.00 43 1016.6
20260503173202 77 92 5.0 11.0 0.00 0.00 0.00 43 1016.6
20260503173102 78 104 6.0 11.0 0.00 0.00 0.00 42 1016.6
20260503173003 78 104 6.0 11.0 0.00 0.00 0.00 46 1016.6
20260503172902 78 90 4.0 11.0 0.00 0.00 0.00 46 1016.5
20260503172803 78 83 2.0 4.0 0.00 0.00 0.00 47 1016.5
20260503172705 78 102 2.0 4.0 0.00 0.00 0.00 47 1016.6
20260503172603 78 97 2.0 4.0 0.00 0.00 0.00 46 1016.6
20260503172504 78 96 3.0 4.0 0.00 0.00 0.00 46 1016.6
20260503172403 78 159 2.0 4.0 0.00 0.00 0.00 47 1016.6
20260503172305 78 164 2.0 5.0 0.00 0.00 0.00 46 1016.6
20260503172202 77 164 2.0 5.0 0.00 0.00 0.00 48 1016.7
20260503172103 77 172 2.0 5.0 0.00 0.00 0.00 47 1016.7
20260503172003 77 172 2.0 5.0 0.00 0.00 0.00 46 1016.6
20260503171901 77 185 2.0 5.0 0.00 0.00 0.00 46 1016.7
20260503171803 77 175 2.0 5.0 0.00 0.00 0.00 45 1016.7
20260503171703 78 183 3.0 5.0 0.00 0.00 0.00 45 1016.8
20260503171602 78 116 3.0 5.0 0.00 0.00 0.00 45 1016.8
20260503171503 78 158 3.0 5.0 0.00 0.00 0.00 46 1016.8
20260503171405 78 162 2.0 5.0 0.00 0.00 0.00 49 1016.8
20260503171304 78 168 1.0 4.0 0.00 0.00 0.00 50 1016.8
20260503171204 77 54 1.0 4.0 0.00 0.00 0.00 50 1016.8
20260503171104 77 54 1.0 4.0 0.00 0.00 0.00 46 1016.9
20260503171002 76 54 0.0 7.0 0.00 0.00 0.00 47 1016.8
20260503170903 76 54 2.0 7.0 0.00 0.00 0.00 47 1016.9
20260503170803 76 54 3.0 7.0 0.00 0.00 0.00 48 1016.9
20260503170703 76 54 3.0 7.0 0.00 0.00 0.00 48 1016.9
20260503170602 76 31 3.0 7.0 0.00 0.00 0.00 45 1017.0
20260503170505 77 54 3.0 7.0 0.00 0.00 0.00 47 1017.1
20260503170403 77 56 2.0 7.0 0.00 0.00 0.00 47 1017.0
20260503170304 77 114 2.0 7.0 0.00 0.00 0.00 46 1017.0
20260503170204 77 116 3.0 7.0 0.00 0.00 0.00 46 1017.0
20260503160204 75 127 1.0 4.0 0.00 0.00 0.00 51 1017.1
20260503160105 75 127 2.0 4.0 0.00 0.00 0.00 51 1017.1
20260503150932 74 141 2.0 5.0 0.00 0.00 0.00 55 1016.9
20260503150833 74 141 3.0 5.0 0.00 0.00 0.00 55 1016.8
20260503150733 73 148 3.0 5.0 0.00 0.00 0.00 56 1016.9
20260503150630 73 151 2.0 5.0 0.00 0.00 0.00 56 1016.9
20260503150532 73 145 2.0 5.0 0.00 0.00 0.00 55 1016.9
20260503150431 73 148 2.0 5.0 0.00 0.00 0.00 55 1017.0
20260503150328 73 140 3.0 6.0 0.00 0.00 0.00 55 1016.9
20260503150223 73 125 3.0 6.0 0.00 0.00 0.00 55 1016.9
20260503150122 73 135 3.0 6.0 0.00 0.00 0.00 55 1017.0
20260503140308 69 107 3.0 6.0 0.00 0.00 0.00 66 1016.7
20260503140205 69 106 3.0 6.0 0.00 0.00 0.00 67 1016.7
20260503140107 69 100 2.0 6.0 0.00 0.00 0.00 67 1016.7
20260503131404 63 90 0.0 2.0 0.00 0.00 0.00 86 1016.1
20260503131304 63 83 0.0 2.0 0.00 0.00 0.00 86 1016.2
20260503131205 63 83 0.0 2.0 0.00 0.00 0.00 87 1016.2
20260503131107 63 82 0.0 2.0 0.00 0.00 0.00 87 1016.2
20260503131004 63 82 0.0 2.0 0.00 0.00 0.00 89 1016.2
20260503130904 63 82 0.0 2.0 0.00 0.00 0.00 89 1016.2
20260503130807 63 76 0.0 0.0 0.00 0.00 0.00 90 1016.3
20260503130705 62 76 0.0 0.0 0.00 0.00 0.00 89 1016.3
20260503130606 62 76 0.0 0.0 0.00 0.00 0.00 89 1016.2
20260503130505 62 76 0.0 0.0 0.00 0.00 0.00 90 1016.3
20260503130406 62 76 0.0 0.0 0.00 0.00 0.00 90 1016.3
20260503130305 62 76 0.0 0.0 0.00 0.00 0.00 91 1016.4
20260503130205 62 76 0.0 0.0 0.00 0.00 0.00 91 1016.3
20260503130106 62 76 0.0 0.0 0.00 0.00 0.00 91 1016.3
20260503120204 57 76 0.0 0.0 0.00 0.00 0.00 92 1015.9
20260503120103 57 76 0.0 0.0 0.00 0.00 0.00 92 1015.8
20260503110803 57 76 0.0 0.0 0.00 0.00 0.00 92 1015.5
20260503110703 57 76 0.0 0.0 0.00 0.00 0.00 92 1015.4
20260503110602 57 76 0.0 0.0 0.00 0.00 0.00 92 1015.4
20260503110502 57 76 0.0 0.0 0.00 0.00 0.00 92 1015.4
20260503110403 57 76 0.0 0.0 0.00 0.00 0.00 92 1015.4
20260503110245 57 76 0.0 0.0 0.00 0.00 0.00 92 1015.3
20260503110135 57 76 0.0 0.0 0.00 0.00 0.00 92 1015.3
20260503100202 58 76 0.0 0.0 0.00 0.00 0.00 91 1015.0
20260503090502 58 76 0.0 0.0 0.00 0.00 0.00 91 1014.8
20260503090403 58 76 0.0 0.0 0.00 0.00 0.00 91 1014.7
20260503090302 58 76 0.0 0.0 0.00 0.00 0.00 91 1014.8
20260503090202 58 76 0.0 0.0 0.00 0.00 0.00 91 1014.8
20260503081603 59 76 0.0 0.0 0.00 0.00 0.00 90 1014.8
20260503081504 59 76 0.0 0.0 0.00 0.00 0.00 90 1015.0
20260503081402 59 76 0.0 0.0 0.00 0.00 0.00 90 1014.9
20260503081302 59 76 0.0 0.0 0.00 0.00 0.00 90 1014.8
20260503081203 60 76 0.0 0.0 0.00 0.00 0.00 90 1014.9
20260503081102 60 76 0.0 0.0 0.00 0.00 0.00 90 1014.8
20260503081002 60 76 0.0 0.0 0.00 0.00 0.00 90 1014.8
20260503080904 60 76 0.0 0.0 0.00 0.00 0.00 90 1014.9
20260503080802 60 76 0.0 0.0 0.00 0.00 0.00 90 1014.9
20260503080703 60 76 0.0 0.0 0.00 0.00 0.00 90 1014.9
20260503080602 60 76 0.0 0.0 0.00 0.00 0.00 90 1014.9
20260503080503 60 76 0.0 0.0 0.00 0.00 0.00 90 1014.9
20260503080403 60 76 0.0 0.0 0.00 0.00 0.00 90 1014.9
20260503080303 60 76 0.0 0.0 0.00 0.00 0.00 90 1015.0
20260503080202 60 76 0.0 0.0 0.00 0.00 0.00 90 1015.0
20260503072932 60 76 0.0 0.0 0.00 0.00 0.00 89 1014.9
20260503072831 60 76 0.0 0.0 0.00 0.00 0.00 89 1015.0
20260503072731 60 76 0.0 0.0 0.00 0.00 0.00 89 1014.9
20260503072631 60 76 0.0 0.0 0.00 0.00 0.00 89 1014.9
20260503072531 60 76 0.0 0.0 0.00 0.00 0.00 89 1014.9
20260503072432 60 76 0.0 0.0 0.00 0.00 0.00 89 1015.0
20260503072331 60 76 0.0 0.0 0.00 0.00 0.00 89 1014.9
20260503072232 60 76 0.0 0.0 0.00 0.00 0.00 89 1014.9
20260503072129 60 76 0.0 0.0 0.00 0.00 0.00 89 1014.9
20260503072030 60 76 0.0 0.0 0.00 0.00 0.00 89 1014.9
20260503071927 60 76 0.0 0.0 0.00 0.00 0.00 89 1014.9
20260503071828 60 76 0.0 0.0 0.00 0.00 0.00 89 1014.9
20260503071725 60 76 0.0 0.0 0.00 0.00 0.00 89 1015.0
20260503071604 60 76 0.0 0.0 0.00 0.00 0.00 89 1015.0
20260503071506 60 76 0.0 0.0 0.00 0.00 0.00 89 1015.1
20260503071401 60 76 0.0 0.0 0.00 0.00 0.00 89 1015.0
20260503071303 60 76 0.0 0.0 0.00 0.00 0.00 89 1015.0
20260503071204 60 76 0.0 0.0 0.00 0.00 0.00 89 1015.0
20260503071103 60 76 0.0 0.0 0.00 0.00 0.00 89 1015.0
20260503071004 60 76 0.0 0.0 0.00 0.00 0.00 89 1015.0
20260503070902 60 76 0.0 0.0 0.00 0.00 0.00 89 1015.0
20260503070802 60 76 0.0 0.0 0.00 0.00 0.00 89 1015.0
20260503070702 60 76 0.0 0.0 0.00 0.00 0.00 89 1015.0
20260503070603 60 76 0.0 0.0 0.00 0.00 0.00 89 1015.0
20260503070502 60 76 0.0 0.0 0.00 0.00 0.00 89 1015.0
20260503070404 60 76 0.0 0.0 0.00 0.00 0.00 89 1015.0
20260503070302 60 76 0.0 0.0 0.00 0.00 0.00 89 1015.1
20260503070203 60 76 0.0 0.0 0.00 0.00 0.00 89 1015.0
20260503070105 60 76 0.0 0.0 0.00 0.00 0.00 89 1015.0
20260503060303 62 76 0.0 0.0 0.00 0.00 0.00 88 1014.9
20260503060204 62 76 0.0 0.0 0.00 0.00 0.00 88 1014.9
20260503060104 62 76 0.0 0.0 0.00 0.00 0.00 87 1014.9
20260503055055 62 76 0.0 0.0 0.00 0.00 0.00 87 1015.1
20260503054954 62 76 0.0 0.0 0.00 0.00 0.00 87 1015.1
20260503054856 62 76 0.0 0.0 0.00 0.00 0.00 87 1015.1
20260503054755 62 76 0.0 0.0 0.00 0.00 0.00 87 1015.0
20260503054655 62 76 0.0 0.0 0.00 0.00 0.00 87 1015.0
20260503054556 62 76 0.0 0.0 0.00 0.00 0.00 87 1015.1
20260503054454 62 76 0.0 0.0 0.00 0.00 0.00 87 1015.0
20260503054355 62 76 0.0 0.0 0.00 0.00 0.00 87 1014.9
20260503054255 62 76 0.0 0.0 0.00 0.00 0.00 86 1015.0
20260503054155 62 76 0.0 0.0 0.00 0.00 0.00 86 1015.0
20260503054055 62 76 0.0 0.0 0.00 0.00 0.00 86 1015.0
20260503053955 62 76 0.0 0.0 0.00 0.00 0.00 86 1015.1
20260503053856 62 76 0.0 0.0 0.00 0.00 0.00 86 1015.0
20260503053754 62 76 0.0 0.0 0.00 0.00 0.00 86 1015.1
20260503053656 62 76 0.0 0.0 0.00 0.00 0.00 86 1015.1
20260503053554 62 76 0.0 0.0 0.00 0.00 0.00 86 1015.1
20260503053457 62 76 0.0 0.0 0.00 0.00 0.00 85 1015.1
20260503053356 62 76 0.0 0.0 0.00 0.00 0.00 85 1015.1
20260503053256 62 76 0.0 0.0 0.00 0.00 0.00 86 1015.1
20260503053155 62 76 0.0 0.0 0.00 0.00 0.00 86 1015.0
20260503053056 62 76 0.0 0.0 0.00 0.00 0.00 86 1015.0
20260503052955 62 76 0.0 0.0 0.00 0.00 0.00 86 1014.9
20260503052854 62 76 0.0 0.0 0.00 0.00 0.00 86 1014.9
20260503052754 62 76 0.0 0.0 0.00 0.00 0.00 86 1014.8
20260503052656 62 76 0.0 0.0 0.00 0.00 0.00 86 1014.9
20260503052554 62 76 0.0 0.0 0.00 0.00 0.00 85 1014.9
20260503052455 62 76 0.0 0.0 0.00 0.00 0.00 85 1014.8
20260503052355 62 76 0.0 0.0 0.00 0.00 0.00 85 1014.8
20260503052254 62 76 0.0 0.0 0.00 0.00 0.00 85 1014.8
20260503052155 62 76 0.0 0.0 0.00 0.00 0.00 85 1014.8
20260503052054 62 76 0.0 0.0 0.00 0.00 0.00 86 1014.8
20260503051956 62 76 0.0 0.0 0.00 0.00 0.00 86 1014.7
20260503051854 62 76 0.0 0.0 0.00 0.00 0.00 86 1014.8
20260503051754 62 76 0.0 0.0 0.00 0.00 0.00 86 1014.8
20260503051654 62 76 0.0 0.0 0.00 0.00 0.00 85 1014.8
20260503051555 62 76 0.0 0.0 0.00 0.00 0.00 85 1014.8
20260503051455 62 76 0.0 0.0 0.00 0.00 0.00 85 1014.8
20260503051354 62 76 0.0 0.0 0.00 0.00 0.00 85 1014.8
20260503051253 62 76 0.0 0.0 0.00 0.00 0.00 85 1014.8
20260503051153 63 76 0.0 0.0 0.00 0.00 0.00 85 1014.8
20260503051055 63 76 0.0 0.0 0.00 0.00 0.00 85 1014.9
20260503050955 63 76 0.0 0.0 0.00 0.00 0.00 85 1014.9
20260503050855 63 76 0.0 0.0 0.00 0.00 0.00 84 1014.8
20260503050755 63 76 0.0 0.0 0.00 0.00 0.00 84 1014.9
20260503050655 63 76 0.0 0.0 0.00 0.00 0.00 84 1014.8
20260503050554 63 76 0.0 0.0 0.00 0.00 0.00 84 1014.9
20260503050455 63 76 0.0 0.0 0.00 0.00 0.00 84 1014.9
20260503050354 63 76 0.0 0.0 0.00 0.00 0.00 84 1014.9
20260503050254 63 76 0.0 0.0 0.00 0.00 0.00 84 1014.8
20260503050154 63 76 0.0 0.0 0.00 0.00 0.00 84 1014.8
20260503050053 63 76 0.0 0.0 0.00 0.00 0.00 84 1014.7
20260503045953 63 76 0.0 0.0 0.00 0.00 0.00 84 1014.7
20260503045853 63 76 0.0 0.0 0.00 0.00 0.00 84 1014.8
20260503045756 63 76 0.0 0.0 0.00 0.00 0.00 83 1014.8
20260503045654 63 76 0.0 0.0 0.00 0.00 0.00 83 1014.9
20260503045553 63 76 0.0 0.0 0.00 0.00 0.00 83 1014.8
20260503045455 63 76 0.0 0.0 0.00 0.00 0.00 83 1014.8
20260503045354 64 76 0.0 0.0 0.00 0.00 0.00 83 1014.8
20260503045253 64 76 0.0 0.0 0.00 0.00 0.00 83 1014.7
20260503045155 64 76 0.0 0.0 0.00 0.00 0.00 83 1014.7
20260503045055 64 76 0.0 0.0 0.00 0.00 0.00 83 1014.7
20260503044955 64 76 0.0 0.0 0.00 0.00 0.00 82 1014.7
20260503044853 64 76 0.0 0.0 0.00 0.00 0.00 81 1014.6
20260503044754 64 76 0.0 0.0 0.00 0.00 0.00 81 1014.7
20260503044653 64 76 0.0 0.0 0.00 0.00 0.00 81 1014.7
20260503044554 64 76 0.0 0.0 0.00 0.00 0.00 81 1014.7
20260503044454 64 76 0.0 0.0 0.00 0.00 0.00 81 1014.8
20260503044355 64 76 0.0 0.0 0.00 0.00 0.00 81 1014.7
20260503044254 64 76 0.0 0.0 0.00 0.00 0.00 81 1014.7
20260503044154 64 76 0.0 0.0 0.00 0.00 0.00 81 1014.7
20260503044055 64 76 0.0 0.0 0.00 0.00 0.00 82 1014.7
20260503043952 64 76 0.0 0.0 0.00 0.00 0.00 82 1014.7
20260503043855 64 76 0.0 0.0 0.00 0.00 0.00 82 1014.8
20260503043756 64 76 0.0 0.0 0.00 0.00 0.00 82 1014.8
20260503043654 64 76 0.0 0.0 0.00 0.00 0.00 82 1014.8
20260503043555 64 76 0.0 0.0 0.00 0.00 0.00 82 1014.7
20260503043456 64 76 0.0 0.0 0.00 0.00 0.00 82 1014.7
20260503043353 64 76 0.0 0.0 0.00 0.00 0.00 82 1014.8
20260503043253 64 76 0.0 0.0 0.00 0.00 0.00 82 1014.7
20260503043154 63 76 0.0 0.0 0.00 0.00 0.00 82 1014.7
20260503043054 63 76 0.0 0.0 0.00 0.00 0.00 82 1014.8
20260503042955 63 76 0.0 0.0 0.00 0.00 0.00 82 1014.7
20260503042853 63 76 0.0 0.0 0.00 0.00 0.00 82 1014.7
20260503042754 63 76 0.0 0.0 0.00 0.00 0.00 82 1014.7
20260503042652 63 76 0.0 0.0 0.00 0.00 0.00 83 1014.7
20260503042554 63 76 0.0 0.0 0.00 0.00 0.00 83 1014.7
20260503042453 63 76 0.0 0.0 0.00 0.00 0.00 83 1014.6
20260503042352 63 76 0.0 0.0 0.00 0.00 0.00 82 1014.7
20260503042252 63 76 0.0 0.0 0.00 0.00 0.00 83 1014.6
20260503042154 64 76 0.0 0.0 0.00 0.00 0.00 83 1014.6
20260503042054 64 76 0.0 0.0 0.00 0.00 0.00 83 1014.5
20260503041954 64 76 0.0 0.0 0.00 0.00 0.00 83 1014.6
20260503041854 64 76 0.0 0.0 0.00 0.00 0.00 83 1014.7
20260503041753 64 76 0.0 0.0 0.00 0.00 0.00 83 1014.6
20260503041653 64 76 0.0 0.0 0.00 0.00 0.00 83 1014.6
20260503041552 64 76 0.0 0.0 0.00 0.00 0.00 83 1014.6
20260503041453 64 76 0.0 0.0 0.00 0.00 0.00 83 1014.6